GW0861 Weather Reports


Display with metric or nautical units.
time (UTC)temp
F
wind
direction
speed
MPH
gust
MPH
rain 1hr
in
rain 24hr
in
rain mn
in
humidity
%
barometer
mb
20260506160253 44 330 2.0 7.0 0.03 0.65 0.51 94 1007.4
20260506155520 44 330 1.0 10.0 0.03 0.62 0.51 94 1007.4
20260506155019 44 300 2.0 10.0 0.03 0.62 0.50 93 1007.3
20260506154519 44 351 2.0 5.0 0.03 0.62 0.50 93 1007.1
20260506154020 44 264 2.0 5.0 0.04 0.62 0.50 93 1007.1
20260506153519 44 354 1.0 5.0 0.06 0.62 0.50 93 1006.8
20260506153058 44 321 2.0 6.0 0.08 0.62 0.50 93 1006.7
20260506153024 44 326 1.0 6.0 0.08 0.62 0.50 93 1006.8
20260506151525 44 185 2.0 6.0 0.09 0.62 0.49 92 1006.8
20260506151521 44 338 3.0 6.0 0.09 0.62 0.50 92 1006.8
20260506150520 44 348 2.0 9.0 0.09 0.62 0.49 92 1006.7
20260506150019 44 7 2.0 9.0 0.09 0.62 0.48 92 1006.7
20260506145755 44 217 2.0 6.0 0.09 0.53 0.48 92 1006.8
20260506145019 44 354 1.0 7.0 0.09 0.53 0.47 91 1006.7
20260506144753 44 237 3.0 9.0 0.09 0.53 0.47 91 1006.8
20260506144253 45 247 2.0 9.0 0.09 0.53 0.46 91 1006.9
20260506144004 45 279 4.0 7.0 0.08 0.53 0.44 91 1006.9
20260506143019 45 78 2.0 6.0 0.07 0.53 0.42 91 1006.6
20260506142520 46 259 2.0 10.0 0.08 0.53 0.42 90 1006.5
20260506142020 46 290 3.0 10.0 0.07 0.53 0.41 90 1006.2
20260506141519 46 354 4.0 9.0 0.08 0.53 0.41 90 1005.9
20260506141019 47 319 2.0 9.0 0.08 0.53 0.40 90 1005.9
20260506140519 47 340 2.0 9.0 0.08 0.53 0.40 90 1005.8
20260506140256 47 54 3.0 9.0 0.08 0.53 0.39 89 1005.8
20260506135740 48 344 4.0 6.0 0.09 0.45 0.39 89 1005.7
20260506135019 49 55 2.0 6.0 0.08 0.45 0.38 89 1005.8
20260506134520 49 62 2.0 7.0 0.09 0.45 0.38 89 1005.9
20260506134019 50 348 3.0 9.0 0.10 0.45 0.37 89 1006.1
20260506133757 51 302 3.0 9.0 0.10 0.45 0.36 89 1006.0
20260506133019 52 292 4.0 9.0 0.10 0.45 0.35 89 1006.0
20260506132755 53 114 2.0 6.0 0.10 0.45 0.34 91 1006.1
20260506132020 54 30 4.0 6.0 0.12 0.45 0.33 92 1006.1
20260506131818 55 292 0.0 4.0 0.13 0.45 0.32 94 1006.0
20260506131812 54 165 1.0 4.0 0.12 0.45 0.33 93 1006.0
20260506130519 55 306 2.0 6.0 0.14 0.45 0.32 94 1005.9
20260506130020 55 248 2.0 9.0 0.14 0.45 0.31 94 1005.9
20260506125519 55 185 5.0 9.0 0.14 0.31 0.30 94 1005.9
20260506125019 55 274 4.0 9.0 0.15 0.31 0.30 94 1005.9
20260506124520 55 199 6.0 14.0 0.14 0.31 0.29 94 1006.1
20260506124021 55 204 4.0 14.0 0.13 0.31 0.27 94 1006.1
20260506123519 55 173 4.0 13.0 0.12 0.31 0.26 94 1006.2
20260506123020 55 227 6.0 13.0 0.12 0.31 0.25 94 1006.2
20260506122519 55 204 5.0 14.0 0.11 0.31 0.24 94 1006.1
20260506122020 55 210 5.0 14.0 0.09 0.31 0.22 94 1006.0
20260506121520 55 231 6.0 11.0 0.08 0.31 0.21 94 1006.4
20260506121019 55 206 5.0 13.0 0.07 0.31 0.19 94 1006.2
20260506120519 55 206 6.0 13.0 0.06 0.31 0.18 94 1006.2
20260506120037 55 206 4.0 9.0 0.04 0.26 0.16 94 1005.9
20260506120031 55 252 5.0 12.0 0.05 0.31 0.17 94 1006.1
20260506115019 55 169 3.0 10.0 0.03 0.26 0.15 94 1005.8
20260506114519 55 209 6.0 11.0 0.04 0.26 0.15 94 1005.8
20260506114019 55 196 4.0 11.0 0.03 0.26 0.14 94 1005.7
20260506113519 55 182 4.0 10.0 0.04 0.26 0.14 94 1005.7
20260506113019 55 186 5.0 10.0 0.03 0.26 0.13 94 1005.7
20260506112758 55 127 6.0 11.0 0.03 0.26 0.13 94 1005.7
20260506112020 55 200 5.0 15.0 0.04 0.26 0.13 94 1005.7
20260506111519 55 227 7.0 15.0 0.04 0.26 0.13 95 1005.7
20260506111019 55 206 7.0 12.0 0.03 0.26 0.12 95 1005.6
20260506110519 55 217 6.0 12.0 0.04 0.26 0.12 95 1005.7
20260506110019 54 212 7.0 15.0 0.04 0.26 0.12 95 1005.7
20260506105520 54 257 7.0 15.0 0.04 0.22 0.12 95 1005.5
20260506105019 54 238 6.0 16.0 0.04 0.22 0.12 95 1005.6
20260506104519 54 235 7.0 16.0 0.03 0.22 0.11 95 1005.5
20260506104019 54 176 8.0 16.0 0.03 0.22 0.11 95 1005.6
20260506103754 53 179 7.0 16.0 0.02 0.22 0.10 96 1005.7
20260506103020 53 204 8.0 14.0 0.03 0.22 0.10 95 1005.8
20260506102519 53 190 8.0 15.0 0.03 0.22 0.10 96 1005.9
20260506102257 52 209 8.0 15.0 0.02 0.22 0.09 96 1005.9
20260506101519 52 179 4.0 9.0 0.03 0.22 0.09 95 1005.9
20260506101019 52 240 4.0 7.0 0.03 0.22 0.09 95 1005.9
20260506100519 51 237 3.0 11.0 0.03 0.22 0.08 95 1005.8
20260506100019 51 248 4.0 11.0 0.03 0.22 0.08 95 1005.9
20260506095519 51 165 4.0 9.0 0.04 0.19 0.08 96 1005.8
20260506095019 50 166 6.0 9.0 0.04 0.19 0.08 96 1005.8
20260506094520 50 178 4.0 9.0 0.04 0.19 0.08 95 1005.8
20260506094020 50 176 3.0 5.0 0.04 0.19 0.08 95 1005.8
20260506093519 50 171 2.0 9.0 0.04 0.19 0.08 95 1005.9
20260506093019 50 133 4.0 10.0 0.04 0.19 0.07 95 1005.9
20260506092754 49 172 6.0 10.0 0.04 0.20 0.07 95 1006.1
20260506092019 49 186 0.0 1.0 0.04 0.20 0.07 94 1006.1
20260506091521 49 186 0.0 1.0 0.03 0.20 0.06 94 1006.0
20260506091018 49 186 0.0 1.0 0.04 0.20 0.06 94 1006.1
20260506090519 49 186 0.0 3.0 0.03 0.20 0.05 94 1006.4
20260506090039 49 186 0.0 7.0 0.02 0.17 0.04 94 1006.6
20260506090031 49 186 0.0 5.0 0.03 0.20 0.05 94 1006.4
20260506085019 48 186 3.0 7.0 0.02 0.17 0.04 94 1006.6
20260506084519 48 317 0.0 2.0 0.02 0.17 0.04 94 1006.6
20260506084019 48 317 1.0 3.0 0.02 0.17 0.04 93 1006.8
20260506083534 48 317 2.0 3.0 0.02 0.17 0.04 93 1006.9
20260506082519 48 171 0.0 0.0 0.01 0.17 0.03 94 1007.0
20260506082019 48 171 0.0 3.0 0.02 0.17 0.03 94 1007.0
20260506081533 48 171 0.0 3.0 0.02 0.17 0.03 94 1006.9
20260506080518 48 100 2.0 3.0 0.01 0.17 0.02 94 1006.8
20260506073019 48 71 1.0 4.0 0.01 0.16 0.02 93 1006.9
20260506072518 48 71 0.0 4.0 0.01 0.16 0.01 93 1007.0
20260506072019 48 61 0.0 9.0 0.00 0.16 0.01 93 1007.0
20260506071519 48 197 1.0 11.0 0.01 0.16 0.01 93 1006.9
20260506071018 48 93 8.0 11.0 0.01 0.16 0.01 92 1006.7
20260506070518 48 100 8.0 11.0 0.01 0.16 0.01 92 1006.8
20260506062018 49 83 6.0 10.0 0.01 0.15 0.01 91 1007.2
20260506061755 49 69 4.0 7.0 0.00 0.15 0.00 90 1007.3
20260506061020 49 71 5.0 7.0 0.00 0.15 0.00 90 1007.7
20260506060519 49 68 0.0 7.0 0.00 0.15 0.00 90 1008.0
20260506051018 49 78 5.0 7.0 0.00 0.15 0.00 90 1008.8
20260506050519 50 93 4.0 7.0 0.00 0.15 0.00 90 1008.9
20260506044519 50 90 5.0 10.0 0.00 0.15 0.00 90 1008.7
20260506044019 50 83 8.0 10.0 0.00 0.15 0.00 90 1008.7
20260506043519 50 89 6.0 11.0 0.00 0.15 0.00 90 1008.7
20260506043018 51 71 6.0 11.0 0.00 0.15 0.00 90 1008.9
20260506042519 51 76 6.0 10.0 0.00 0.15 0.00 90 1008.4
20260506042018 51 72 6.0 12.0 0.00 0.15 0.00 90 1008.4
20260506041520 51 80 8.0 12.0 0.00 0.15 0.00 90 1008.5
20260506041018 52 71 8.0 11.0 0.00 0.15 0.00 90 1008.6
20260506040803 52 85 4.0 11.0 0.00 0.15 0.00 91 1008.7
20260506040019 52 90 6.0 11.0 0.00 0.15 0.00 90 1008.7
20260506035518 53 103 8.0 11.0 0.00 0.15 0.15 91 1008.6
20260506035018 53 96 6.0 9.0 0.00 0.15 0.15 91 1008.8
20260506034518 53 90 4.0 10.0 0.00 0.15 0.15 91 1008.5
20260506034018 53 59 2.0 10.0 0.00 0.15 0.15 91 1008.7
20260506033519 53 79 4.0 6.0 0.00 0.15 0.15 91 1008.6
20260506033019 53 90 4.0 6.0 0.00 0.15 0.15 90 1008.6
20260506032518 53 85 0.0 3.0 0.00 0.15 0.15 90 1008.6
20260506032018 54 37 0.0 4.0 0.00 0.15 0.15 90 1008.7
20260506031519 54 275 0.0 4.0 0.00 0.15 0.15 90 1009.0
20260506031019 54 61 2.0 3.0 0.00 0.15 0.15 90 1008.9
20260506030759 54 41 0.0 3.0 0.00 0.15 0.15 90 1009.1
20260506030018 54 51 0.0 5.0 0.00 0.15 0.15 90 1009.0
20260506025518 54 79 1.0 6.0 0.00 0.15 0.15 90 1009.0
20260506025020 54 71 5.0 6.0 0.00 0.15 0.15 89 1008.9
20260506024755 54 65 4.0 6.0 0.00 0.15 0.15 89 1009.0
20260506024020 54 83 5.0 6.0 0.00 0.15 0.15 88 1008.9
20260506023518 54 71 3.0 5.0 0.00 0.15 0.15 88 1008.9
20260506023018 54 35 2.0 4.0 0.00 0.15 0.15 87 1008.9
20260506022518 55 340 1.0 4.0 0.00 0.15 0.15 86 1008.9
20260506022018 55 283 1.0 6.0 0.00 0.15 0.15 86 1009.0
20260506021518 55 48 2.0 6.0 0.00 0.15 0.15 86 1009.0
20260506021019 55 0 1.0 6.0 0.00 0.15 0.15 86 1008.8
20260506020518 55 1 3.0 6.0 0.00 0.15 0.15 85 1008.7
20260506020018 55 350 3.0 6.0 0.00 0.15 0.15 85 1008.7
20260506015518 55 25 1.0 6.0 0.00 0.15 0.15 85 1008.8
20260506015019 56 47 5.0 6.0 0.00 0.15 0.15 85 1008.8
20260506014519 56 48 3.0 9.0 0.00 0.15 0.15 84 1008.9
20260506014255 56 47 4.0 9.0 0.00 0.15 0.15 83 1009.1
20260506013751 56 276 3.0 14.0 0.00 0.15 0.15 83 1009.0
20260506013017 57 320 7.0 15.0 0.00 0.15 0.15 82 1009.3
20260506012754 57 282 9.0 15.0 0.00 0.15 0.15 82 1009.4
20260506012019 58 221 2.0 12.0 0.00 0.15 0.15 81 1008.5
20260506011518 58 272 5.0 12.0 0.00 0.15 0.15 80 1008.4
20260506011018 58 0 4.0 12.0 0.00 0.15 0.15 80 1008.5
20260506010518 59 345 4.0 10.0 0.00 0.15 0.15 79 1008.4
20260506010018 59 351 5.0 10.0 0.00 0.15 0.15 79 1008.1
20260506005519 60 71 3.0 7.0 0.00 0.15 0.15 79 1008.1
20260506005019 60 266 4.0 7.0 0.00 0.15 0.15 79 1008.1
20260506004518 60 10 2.0 5.0 0.00 0.15 0.15 79 1007.9
20260506004018 60 25 2.0 4.0 0.00 0.15 0.15 80 1007.9
20260506003519 60 272 1.0 3.0 0.00 0.15 0.15 80 1007.8
20260506003020 60 272 2.0 4.0 0.00 0.15 0.15 80 1007.9
20260506002518 61 272 2.0 5.0 0.00 0.15 0.15 79 1007.8
20260506002018 61 272 4.0 5.0 0.00 0.15 0.15 80 1007.7
20260506001518 61 272 4.0 5.0 0.00 0.15 0.15 79 1007.6
20260506001018 61 272 4.0 5.0 0.00 0.15 0.15 79 1007.7
20260506000518 61 269 3.0 6.0 0.00 0.15 0.15 79 1007.7
20260506000018 61 279 3.0 7.0 0.00 0.15 0.15 79 1007.5
20260505235518 61 275 6.0 10.0 0.00 0.15 0.15 79 1007.5
20260505235257 62 289 4.0 10.0 0.00 0.15 0.15 79 1007.6
20260505234519 62 264 6.0 7.0 0.00 0.15 0.15 78 1007.6
20260505234018 62 252 5.0 10.0 0.00 0.15 0.15 78 1007.7
20260505233518 62 262 5.0 10.0 0.00 0.15 0.15 78 1007.5
20260505233019 62 257 5.0 9.0 0.00 0.15 0.15 78 1007.6
20260505232518 62 243 5.0 7.0 0.00 0.15 0.15 78 1007.5
20260505232020 62 234 2.0 6.0 0.00 0.15 0.15 78 1007.7
20260505231518 61 185 3.0 6.0 0.00 0.15 0.15 78 1007.6
20260505231254 61 265 3.0 7.0 0.00 0.15 0.15 79 1007.6
20260505230518 61 230 5.0 7.0 0.00 0.15 0.15 79 1007.5
20260505230019 61 247 4.0 7.0 0.00 0.15 0.15 80 1007.4
20260505225754 61 238 4.0 7.0 0.00 0.15 0.15 80 1007.2
20260505225018 62 272 4.0 9.0 0.00 0.15 0.15 80 1007.1
20260505224519 62 268 6.0 10.0 0.01 0.15 0.15 80 1007.1
20260505224018 62 243 5.0 10.0 0.01 0.15 0.15 80 1007.2
20260505223519 62 238 4.0 11.0 0.02 0.15 0.15 80 1007.2
20260505223018 61 293 6.0 12.0 0.03 0.15 0.15 81 1007.3
20260505222518 61 264 7.0 14.0 0.03 0.15 0.15 80 1007.3
20260505222453 61 259 8.0 19.0 0.03 0.15 0.15 81 1007.2
20260505222152 61 265 7.0 14.0 0.03 0.15 0.15 81 1007.3
20260505220518 62 233 8.0 14.0 0.03 0.15 0.15 81 1007.1
20260505220018 62 258 8.0 14.0 0.03 0.15 0.15 81 1007.1
20260505215541 63 275 9.0 14.0 0.03 0.12 0.15 78 1007.1
20260505215533 62 259 7.0 14.0 0.03 0.12 0.15 80 1007.0
20260505214518 64 285 7.0 17.0 0.02 0.12 0.14 76 1007.2
20260505214253 65 289 6.0 22.0 0.02 0.12 0.14 74 1007.0
20260505213518 66 250 13.0 22.0 0.01 0.12 0.13 71 1007.0
20260505213020 66 248 6.0 22.0 0.00 0.12 0.12 68 1006.8
20260505212518 67 245 11.0 22.0 0.00 0.12 0.12 65 1006.8
20260505212018 67 292 9.0 20.0 0.00 0.12 0.12 64 1006.7
20260505211518 67 269 9.0 18.0 0.00 0.12 0.12 64 1006.5
20260505211018 67 303 11.0 20.0 0.00 0.12 0.12 65 1006.2
20260505210520 67 258 15.0 22.0 0.00 0.12 0.12 63 1006.2
20260505210018 67 305 14.0 22.0 0.00 0.12 0.12 65 1006.0
20260505205519 67 234 9.0 14.0 0.00 0.12 0.12 67 1006.2
20260505205018 67 262 8.0 16.0 0.00 0.12 0.12 68 1006.0
20260505204518 67 261 8.0 16.0 0.00 0.12 0.12 69 1006.1
20260505204018 67 268 10.0 15.0 0.00 0.12 0.12 68 1006.2
20260505203755 67 220 10.0 15.0 0.00 0.12 0.12 70 1006.2
20260505203018 66 289 8.0 15.0 0.00 0.12 0.12 73 1006.2
20260505202518 66 266 9.0 15.0 0.00 0.12 0.12 74 1006.4
20260505202251 66 281 6.0 16.0 0.00 0.12 0.12 75 1006.6
20260505201517 65 254 9.0 16.0 0.00 0.12 0.12 75 1006.6
20260505201018 65 286 9.0 14.0 0.00 0.12 0.12 78 1006.5
20260505200518 65 285 7.0 16.0 0.00 0.12 0.12 78 1006.7
20260505200020 65 272 7.0 16.0 0.00 0.12 0.12 77 1007.0
20260505195753 65 248 9.0 15.0 0.00 0.12 0.12 79 1007.0
20260505195255 65 266 8.0 14.0 0.00 0.12 0.12 81 1007.0
20260505194517 64 279 11.0 14.0 0.00 0.12 0.12 81 1007.0
20260505194038 63 252 5.0 9.0 0.00 0.12 0.12 84 1007.0
20260505194030 64 262 6.0 10.0 0.00 0.12 0.12 84 1006.9
20260505193018 63 216 5.0 12.0 0.01 0.12 0.12 88 1007.0
20260505192757 62 275 6.0 13.0 0.01 0.12 0.12 88 1007.1
20260505192018 61 258 4.0 13.0 0.04 0.12 0.12 89 1007.1
20260505191517 61 268 6.0 12.0 0.10 0.12 0.12 89 1007.1
20260505191254 60 272 6.0 12.0 0.10 0.12 0.12 89 1007.1
20260505190518 60 296 8.0 13.0 0.11 0.12 0.12 87 1007.2
20260505190018 60 265 7.0 13.0 0.11 0.12 0.12 86 1007.3
20260505185524 60 257 6.0 12.0 0.11 0.01 0.12 85 1007.4
20260505185518 60 274 5.0 11.0 0.11 0.01 0.12 86 1007.3
20260505184520 60 223 6.0 15.0 0.11 0.01 0.12 84 1007.3
20260505184017 61 264 9.0 15.0 0.11 0.01 0.12 83 1007.4
20260505183518 61 265 7.0 16.0 0.11 0.01 0.12 82 1007.4
20260505183018 62 282 7.0 20.0 0.10 0.01 0.11 80 1007.3
20260505182517 63 258 12.0 31.0 0.10 0.01 0.11 77 1007.3
20260505182018 65 230 16.0 31.0 0.07 0.01 0.08 73 1007.0
20260505181756 68 292 14.0 28.0 0.01 0.01 0.02 64 1006.1
20260505181751 67 283 12.0 24.0 0.01 0.01 0.02 67 1006.5
20260505180757 69 268 13.0 28.0 0.00 0.01 0.01 58 1006.1
20260505180016 70 251 16.0 27.0 0.00 0.01 0.01 52 1005.7
20260505175739 71 281 13.0 21.0 0.00 0.01 0.01 49 1005.6
20260505175701 71 264 8.0 15.0 0.00 0.01 0.01 50 1005.5
20260505174743 71 226 9.0 18.0 0.00 0.01 0.01 49 1005.7
20260505174018 72 214 11.0 19.0 0.00 0.01 0.01 48 1005.8
20260505173824 72 244 11.0 21.0 0.00 0.01 0.01 50 1005.8
20260505173018 72 214 9.0 21.0 0.00 0.01 0.01 49 1006.0
20260505172524 72 197 11.0 21.0 0.00 0.01 0.01 50 1006.2
20260505172029 71 276 6.0 20.0 0.00 0.01 0.01 54 1006.1
20260505172023 72 231 5.0 20.0 0.00 0.01 0.01 54 1006.1
20260505171017 70 213 9.0 20.0 0.00 0.01 0.01 53 1006.4
20260505170537 69 251 12.0 19.0 0.00 0.01 0.01 54 1006.7
20260505170529 70 159 9.0 20.0 0.00 0.01 0.01 54 1006.7
20260505165516 69 241 10.0 22.0 0.00 0.01 0.01 55 1006.6
20260505165018 69 217 11.0 22.0 0.00 0.01 0.01 54 1006.7
20260505164750 69 262 10.0 22.0 0.00 0.01 0.01 55 1006.7
20260505164017 69 257 9.0 23.0 0.00 0.01 0.01 55 1006.9
20260505163544 69 248 9.0 20.0 0.00 0.01 0.01 55 1006.9
20260505163537 69 268 14.0 23.0 0.00 0.01 0.01 54 1006.8
20260505162518 69 188 10.0 20.0 0.00 0.01 0.01 56 1006.8
20260505162256 69 189 9.0 20.0 0.00 0.01 0.01 55 1006.6
20260505161517 69 275 10.0 19.0 0.00 0.01 0.01 54 1006.2